XNO1903 EGSS-EDDH

Flight info

Callsign XNO1903
Flight time 1h 6m
Altitude 37000
Route CLN P44 SOMVA DCT MAVAS DCT VALAM DCT GASTU DCT OSTOR T904 RIBSO RIBSO7A
Aircraft A320/M-SDE3FGHIRWY/LB1

Departure

Time 2026-05-05 09:04
Airport London Stansted Airport (EGSS)

Arrival

Time 2026-05-05 10:10
Airport Hamburg Helmut Schmidt Airport (EDDH)
Time Latitude Longitude Altitude Speed Heading
2026-05-05 08:33 51.89004 0.25372 354 ft 0 kts 223°
2026-05-05 08:52 51.89007 0.25375 353 ft 3 kts 223°
2026-05-05 08:52 51.89025 0.25405 355 ft 4 kts 231°
2026-05-05 08:53 51.89040 0.25441 349 ft 4 kts 253°
2026-05-05 08:53 51.89040 0.25475 349 ft 2 kts 312°
2026-05-05 08:53 51.89039 0.25476 349 ft 0 kts 313°
2026-05-05 08:57 51.89044 0.25467 351 ft 7 kts 313°
2026-05-05 08:57 51.89102 0.25367 352 ft 11 kts 313°
2026-05-05 08:57 51.89150 0.25260 345 ft 12 kts 275°
2026-05-05 08:57 51.89106 0.25163 351 ft 11 kts 224°
2026-05-05 08:58 51.89040 0.25065 348 ft 13 kts 222°
2026-05-05 08:58 51.88965 0.24958 346 ft 16 kts 221°
2026-05-05 08:58 51.88888 0.24845 351 ft 14 kts 224°
2026-05-05 08:58 51.88791 0.24692 349 ft 22 kts 223°
2026-05-05 08:59 51.88680 0.24525 344 ft 20 kts 224°
2026-05-05 08:59 51.88583 0.24382 346 ft 18 kts 222°
2026-05-05 08:59 51.88491 0.24249 342 ft 18 kts 222°
2026-05-05 08:59 51.88398 0.24107 338 ft 21 kts 223°
2026-05-05 09:00 51.88295 0.23950 337 ft 20 kts 223°
2026-05-05 09:00 51.88172 0.23765 337 ft 27 kts 223°
2026-05-05 09:00 51.88034 0.23555 335 ft 28 kts 222°
2026-05-05 09:00 51.87883 0.23330 334 ft 28 kts 223°
2026-05-05 09:01 51.87766 0.23155 336 ft 19 kts 225°
2026-05-05 09:01 51.87751 0.23005 337 ft 14 kts 305°
2026-05-05 09:01 51.87754 0.22852 334 ft 20 kts 222°
2026-05-05 09:01 51.87655 0.22697 336 ft 19 kts 223°
2026-05-05 09:02 51.87563 0.22560 332 ft 18 kts 223°
2026-05-05 09:02 51.87535 0.22408 331 ft 15 kts 302°
2026-05-05 09:02 51.87622 0.22271 327 ft 19 kts 336°
2026-05-05 09:02 51.87706 0.22292 331 ft 1 kts 36°
2026-05-05 09:03 51.87731 0.22327 331 ft 22 kts 43°
2026-05-05 09:03 51.88035 0.22778 332 ft 93 kts 43°
2026-05-05 09:03 51.88653 0.23690 336 ft 145 kts 42°
2026-05-05 09:03 51.89424 0.24834 945 ft 146 kts 40°
2026-05-05 09:04 51.90189 0.25986 1609 ft 152 kts 43°
2026-05-05 09:04 51.90958 0.27155 2233 ft 157 kts 45°
2026-05-05 09:04 51.91590 0.28765 2487 ft 184 kts 72°
2026-05-05 09:04 51.91683 0.30959 2840 ft 204 kts 97°
2026-05-05 09:05 51.91183 0.33204 3165 ft 229 kts 115°
2026-05-05 09:05 51.90452 0.35619 3683 ft 247 kts 113°
2026-05-05 09:05 51.89698 0.38201 3968 ft 256 kts 113°
2026-05-05 09:05 51.88935 0.40809 4006 ft 257 kts 113°
2026-05-05 09:06 51.88168 0.43428 4003 ft 257 kts 113°
2026-05-05 09:06 51.87414 0.46009 4005 ft 257 kts 113°
2026-05-05 09:06 51.86636 0.48664 4006 ft 257 kts 113°
2026-05-05 09:06 51.85875 0.51240 4007 ft 256 kts 113°
2026-05-05 09:07 51.85106 0.53844 4001 ft 256 kts 113°
2026-05-05 09:07 51.84335 0.56449 4009 ft 256 kts 113°
2026-05-05 09:07 51.83579 0.59061 4021 ft 258 kts 109°
2026-05-05 09:07 51.83100 0.61905 4729 ft 262 kts 97°
2026-05-05 09:08 51.82973 0.64834 4953 ft 260 kts 86°
2026-05-05 09:08 51.83088 0.67724 4990 ft 259 kts 84°
2026-05-05 09:08 51.83206 0.70641 4997 ft 259 kts 85°
2026-05-05 09:08 51.83319 0.73566 5075 ft 263 kts 85°
2026-05-05 09:09 51.83430 0.76518 5791 ft 268 kts 85°
2026-05-05 09:09 51.83544 0.79540 5964 ft 269 kts 84°
2026-05-05 09:09 51.83662 0.82553 5994 ft 268 kts 84°
2026-05-05 09:09 51.83779 0.85573 5994 ft 268 kts 84°
2026-05-05 09:10 51.83894 0.88593 6002 ft 268 kts 84°
2026-05-05 09:10 51.84008 0.91572 6007 ft 269 kts 85°
2026-05-05 09:10 51.84123 0.94593 6003 ft 269 kts 84°
2026-05-05 09:10 51.84236 0.97617 6007 ft 269 kts 84°
2026-05-05 09:11 51.84346 1.00640 6001 ft 269 kts 85°
2026-05-05 09:11 51.84451 1.03669 6002 ft 269 kts 85°
2026-05-05 09:11 51.84556 1.06687 5999 ft 269 kts 85°
2026-05-05 09:11 51.84665 1.09703 5995 ft 268 kts 84°
2026-05-05 09:12 51.84774 1.12686 6000 ft 268 kts 84°
2026-05-05 09:12 51.85121 1.15646 6004 ft 268 kts 69°
2026-05-05 09:12 51.85863 1.18454 6699 ft 272 kts 64°
2026-05-05 09:12 51.86631 1.21277 7579 ft 275 kts 65°
2026-05-05 09:13 51.87394 1.24108 8410 ft 280 kts 65°
2026-05-05 09:13 51.88177 1.27034 9238 ft 285 kts 65°
2026-05-05 09:13 51.88976 1.30020 10040 ft 290 kts 66°
2026-05-05 09:13 51.89805 1.33113 10449 ft 310 kts 66°
2026-05-05 09:14 51.90697 1.36437 10772 ft 330 kts 66°
2026-05-05 09:14 51.91623 1.39889 11428 ft 337 kts 66°
2026-05-05 09:14 51.92549 1.43351 12156 ft 341 kts 66°
2026-05-05 09:14 51.93496 1.46906 12904 ft 345 kts 66°
2026-05-05 09:15 51.94457 1.50514 13654 ft 349 kts 66°
2026-05-05 09:15 51.95424 1.54153 14309 ft 352 kts 66°
2026-05-05 09:15 51.96389 1.57781 14931 ft 356 kts 66°
2026-05-05 09:15 51.97378 1.61504 15554 ft 361 kts 66°
2026-05-05 09:16 51.98377 1.65272 16142 ft 365 kts 67°
2026-05-05 09:16 51.99432 1.69055 16771 ft 369 kts 62°
2026-05-05 09:16 52.00661 1.72737 17384 ft 373 kts 62°
2026-05-05 09:16 52.01911 1.76466 17972 ft 377 kts 62°
2026-05-05 09:17 52.03171 1.80228 18545 ft 381 kts 62°
2026-05-05 09:17 52.04427 1.83984 19029 ft 385 kts 62°
2026-05-05 09:17 52.05714 1.87847 19515 ft 390 kts 62°
2026-05-05 09:17 52.07006 1.91746 20020 ft 393 kts 62°
2026-05-05 09:18 52.08311 1.95695 20545 ft 397 kts 63°
2026-05-05 09:18 52.09621 1.99669 21047 ft 400 kts 63°
2026-05-05 09:18 52.10939 2.03681 21545 ft 403 kts 63°
2026-05-05 09:18 52.12269 2.07724 22028 ft 407 kts 63°
2026-05-05 09:19 52.13595 2.11747 22526 ft 410 kts 63°
2026-05-05 09:19 52.14947 2.15858 22996 ft 414 kts 63°
2026-05-05 09:19 52.16307 2.20007 23443 ft 418 kts 63°
2026-05-05 09:19 52.17689 2.24221 23839 ft 421 kts 63°
2026-05-05 09:20 52.19076 2.28455 24232 ft 424 kts 63°
2026-05-05 09:20 52.20454 2.32669 24606 ft 427 kts 63°
2026-05-05 09:20 52.21854 2.36972 24995 ft 430 kts 63°
2026-05-05 09:20 52.23254 2.41289 25373 ft 432 kts 63°
2026-05-05 09:21 52.24667 2.45649 25737 ft 435 kts 62°
2026-05-05 09:21 52.26089 2.50035 26125 ft 438 kts 62°
2026-05-05 09:21 52.27519 2.54449 26494 ft 440 kts 62°
2026-05-05 09:21 52.28952 2.58891 26862 ft 443 kts 62°
2026-05-05 09:22 52.30334 2.63327 27216 ft 445 kts 66°
2026-05-05 09:22 52.31388 2.68104 27572 ft 447 kts 75°
2026-05-05 09:22 52.32243 2.73005 27915 ft 450 kts 75°
2026-05-05 09:22 52.32813 2.76266 28160 ft 451 kts 74°
2026-05-05 09:23 52.33683 2.81211 28506 ft 454 kts 74°
2026-05-05 09:23 52.34559 2.86184 28857 ft 456 kts 74°
2026-05-05 09:23 52.35443 2.91190 29189 ft 459 kts 74°
2026-05-05 09:23 52.36331 2.96225 29517 ft 461 kts 74°
2026-05-05 09:24 52.37219 3.01286 29842 ft 464 kts 74°
2026-05-05 09:24 52.38102 3.06378 30139 ft 466 kts 75°
2026-05-05 09:24 52.38985 3.11510 30402 ft 468 kts 75°
2026-05-05 09:24 52.39943 3.16552 30662 ft 470 kts 69°
2026-05-05 09:25 52.41290 3.21446 30925 ft 472 kts 64°
2026-05-05 09:25 52.42735 3.26283 31196 ft 473 kts 64°
2026-05-05 09:25 52.44187 3.31153 31492 ft 474 kts 64°
2026-05-05 09:25 52.45629 3.36015 31866 ft 473 kts 64°
2026-05-05 09:26 52.47046 3.40803 32247 ft 471 kts 64°
2026-05-05 09:26 52.48475 3.45645 32621 ft 470 kts 65°
2026-05-05 09:26 52.49897 3.50476 32980 ft 470 kts 65°
2026-05-05 09:26 52.51315 3.55303 33350 ft 469 kts 65°
2026-05-05 09:27 52.52734 3.60133 33716 ft 468 kts 65°
2026-05-05 09:27 52.54149 3.64962 34063 ft 467 kts 65°
2026-05-05 09:27 52.55540 3.69727 34357 ft 467 kts 65°
2026-05-05 09:27 52.56943 3.74544 34626 ft 466 kts 65°
2026-05-05 09:28 52.58342 3.79357 34894 ft 466 kts 65°
2026-05-05 09:28 52.59743 3.84189 35141 ft 466 kts 65°
2026-05-05 09:28 52.61137 3.89009 35390 ft 466 kts 65°
2026-05-05 09:28 52.62532 3.93839 35626 ft 466 kts 65°
2026-05-05 09:29 52.63906 3.98601 35878 ft 466 kts 65°
2026-05-05 09:29 52.65303 4.03447 36116 ft 466 kts 65°
2026-05-05 09:29 52.66695 4.08271 36336 ft 466 kts 65°
2026-05-05 09:29 52.68086 4.13107 36567 ft 466 kts 65°
2026-05-05 09:30 52.69456 4.17880 36789 ft 466 kts 65°
2026-05-05 09:30 52.70844 4.22729 36946 ft 466 kts 65°
2026-05-05 09:30 52.72226 4.27574 36980 ft 465 kts 65°
2026-05-05 09:31 52.74973 4.37240 36975 ft 464 kts 65°
2026-05-05 09:31 52.77683 4.46840 36977 ft 464 kts 65°
2026-05-05 09:32 52.80415 4.56533 36974 ft 464 kts 65°
2026-05-05 09:32 52.83124 4.66178 36972 ft 464 kts 65°
2026-05-05 09:33 52.85835 4.75879 36974 ft 465 kts 65°
2026-05-05 09:33 52.88551 4.85626 36972 ft 465 kts 65°
2026-05-05 09:34 52.91253 4.95366 36977 ft 465 kts 65°
2026-05-05 09:34 52.93945 5.05120 36979 ft 465 kts 65°
2026-05-05 09:35 52.96620 5.14827 36978 ft 465 kts 65°
2026-05-05 09:35 53.00642 5.29512 36983 ft 466 kts 66°
2026-05-05 09:36 53.03298 5.39323 36977 ft 466 kts 66°
2026-05-05 09:36 53.05804 5.49261 36977 ft 466 kts 68°
2026-05-05 09:37 53.08184 5.59303 36972 ft 466 kts 69°
2026-05-05 09:37 53.10547 5.69283 36966 ft 466 kts 69°
2026-05-05 09:38 53.12948 5.79316 36969 ft 466 kts 68°
2026-05-05 09:38 53.15360 5.89353 36969 ft 466 kts 68°
2026-05-05 09:39 53.17752 5.99350 36973 ft 467 kts 69°
2026-05-05 09:39 53.20139 6.09427 36969 ft 467 kts 69°
2026-05-05 09:40 53.22514 6.19509 36968 ft 467 kts 69°
2026-05-05 09:40 53.24873 6.29555 36967 ft 467 kts 69°
2026-05-05 09:41 53.27239 6.39689 36970 ft 468 kts 69°
2026-05-05 09:41 53.29599 6.49851 36969 ft 468 kts 69°
2026-05-05 09:42 53.31934 6.59944 36970 ft 468 kts 69°
2026-05-05 09:42 53.34285 6.70128 36979 ft 469 kts 69°
2026-05-05 09:43 53.36627 6.80349 36636 ft 469 kts 69°
2026-05-05 09:43 53.37797 6.85461 36370 ft 469 kts 69°
2026-05-05 09:43 53.38948 6.90510 36122 ft 470 kts 69°
2026-05-05 09:44 53.40112 6.95631 35867 ft 471 kts 69°
2026-05-05 09:44 53.41277 7.00769 35602 ft 471 kts 69°
2026-05-05 09:44 53.42449 7.05948 34936 ft 474 kts 70°
2026-05-05 09:44 53.43600 7.11045 34408 ft 471 kts 70°
2026-05-05 09:45 53.44754 7.16171 33794 ft 470 kts 70°
2026-05-05 09:45 53.45918 7.21356 33188 ft 467 kts 70°
2026-05-05 09:45 53.47041 7.26374 32624 ft 463 kts 70°
2026-05-05 09:45 53.48170 7.31424 32057 ft 460 kts 70°
2026-05-05 09:46 53.49295 7.36472 31490 ft 458 kts 70°
2026-05-05 09:46 53.50407 7.41474 30932 ft 455 kts 70°
2026-05-05 09:46 53.51512 7.46444 30387 ft 452 kts 70°
2026-05-05 09:46 53.52610 7.51399 29800 ft 450 kts 70°
2026-05-05 09:47 53.53682 7.56249 29269 ft 445 kts 69°
2026-05-05 09:47 53.54753 7.61101 28745 ft 441 kts 69°
2026-05-05 09:47 53.55810 7.65910 28228 ft 436 kts 69°
2026-05-05 09:47 53.56854 7.70679 27743 ft 431 kts 69°
2026-05-05 09:48 53.57884 7.75401 27262 ft 427 kts 69°
2026-05-05 09:48 53.58900 7.80064 26785 ft 423 kts 69°
2026-05-05 09:48 53.59906 7.84691 26324 ft 419 kts 69°
2026-05-05 09:48 53.60906 7.89293 25852 ft 415 kts 69°
2026-05-05 09:49 53.61894 7.93855 25362 ft 413 kts 69°
2026-05-05 09:49 53.62864 7.98347 24884 ft 410 kts 69°
2026-05-05 09:49 53.63824 8.02861 24421 ft 408 kts 70°
2026-05-05 09:49 53.64728 8.07382 23961 ft 406 kts 71°
2026-05-05 09:50 53.65592 8.11913 23466 ft 405 kts 72°
2026-05-05 09:50 53.66435 8.16439 22955 ft 402 kts 72°
2026-05-05 09:50 53.67264 8.20919 22487 ft 399 kts 72°
2026-05-05 09:50 53.68083 8.25320 22027 ft 396 kts 72°
2026-05-05 09:51 53.68910 8.29738 21570 ft 394 kts 71°
2026-05-05 09:51 53.69738 8.34133 21109 ft 391 kts 71°
2026-05-05 09:51 53.70567 8.38506 20661 ft 389 kts 71°
2026-05-05 09:51 53.71392 8.42852 20215 ft 387 kts 71°
2026-05-05 09:52 53.72213 8.47192 19764 ft 385 kts 71°
2026-05-05 09:52 53.73011 8.51447 19326 ft 384 kts 72°
2026-05-05 09:52 53.73814 8.55747 18884 ft 382 kts 72°
2026-05-05 09:52 53.74612 8.60028 18451 ft 381 kts 72°
2026-05-05 09:53 53.75409 8.64302 17978 ft 380 kts 72°
2026-05-05 09:53 53.76198 8.68550 17542 ft 377 kts 72°
2026-05-05 09:53 53.76971 8.72723 17127 ft 373 kts 72°
2026-05-05 09:53 53.77743 8.76897 16703 ft 370 kts 72°
2026-05-05 09:54 53.78513 8.81061 16288 ft 368 kts 72°
2026-05-05 09:54 53.79272 8.85178 15874 ft 365 kts 72°
2026-05-05 09:54 53.80015 8.89219 15471 ft 363 kts 72°
2026-05-05 09:54 53.80757 8.93285 15064 ft 361 kts 72°
2026-05-05 09:55 53.81493 8.97333 14660 ft 358 kts 72°
2026-05-05 09:55 53.82227 9.01359 14252 ft 357 kts 72°
2026-05-05 09:55 53.82734 9.05461 13850 ft 355 kts 85°
2026-05-05 09:55 53.82710 9.09565 13419 ft 352 kts 96°
2026-05-05 09:56 53.82459 9.13680 13004 ft 349 kts 96°
2026-05-05 09:56 53.82218 9.17766 12603 ft 346 kts 96°
2026-05-05 09:56 53.81984 9.21804 12191 ft 344 kts 96°
2026-05-05 09:56 53.81753 9.25827 11788 ft 341 kts 96°
2026-05-05 09:57 53.81524 9.29824 11374 ft 339 kts 97°
2026-05-05 09:57 53.81044 9.33642 10972 ft 334 kts 111°
2026-05-05 09:57 53.80044 9.37139 10667 ft 325 kts 125°
2026-05-05 09:57 53.78795 9.40276 10394 ft 318 kts 126°
2026-05-05 09:58 53.77541 9.43316 10184 ft 309 kts 133°
2026-05-05 09:58 53.75917 9.45500 10036 ft 291 kts 156°
2026-05-05 09:58 53.74024 9.46345 9668 ft 273 kts 181°
2026-05-05 09:58 53.72230 9.45911 9532 ft 250 kts 200°
2026-05-05 09:59 53.70700 9.44732 9211 ft 241 kts 207°
2026-05-05 09:59 53.69093 9.43940 8826 ft 243 kts 187°
2026-05-05 09:59 53.67402 9.44038 8528 ft 244 kts 172°
2026-05-05 09:59 53.65753 9.44710 8208 ft 244 kts 169°
2026-05-05 10:00 53.64096 9.45388 7929 ft 244 kts 169°
2026-05-05 10:00 53.62448 9.46046 7639 ft 243 kts 169°
2026-05-05 10:00 53.60801 9.46701 7358 ft 243 kts 169°
2026-05-05 10:00 53.59160 9.47354 7066 ft 242 kts 169°
2026-05-05 10:01 53.57523 9.48002 6774 ft 242 kts 169°
2026-05-05 10:01 53.55907 9.48639 6453 ft 242 kts 169°
2026-05-05 10:01 53.54270 9.49282 6152 ft 241 kts 169°
2026-05-05 10:01 53.52631 9.49881 5831 ft 239 kts 175°
2026-05-05 10:02 53.50986 9.49804 5550 ft 235 kts 193°
2026-05-05 10:02 53.49435 9.48971 5243 ft 233 kts 200°
2026-05-05 10:02 53.47844 9.48816 4953 ft 236 kts 165°
2026-05-05 10:02 53.46422 9.50187 4634 ft 239 kts 136°
2026-05-05 10:03 53.45521 9.52501 4316 ft 239 kts 112°
2026-05-05 10:03 53.44899 9.55072 4023 ft 237 kts 112°
2026-05-05 10:03 53.44414 9.57734 3594 ft 241 kts 95°
2026-05-05 10:03 53.44526 9.60470 3458 ft 232 kts 75°
2026-05-05 10:04 53.45169 9.62887 3320 ft 223 kts 55°
2026-05-05 10:04 53.46118 9.64852 3198 ft 215 kts 50°
2026-05-05 10:04 53.47066 9.66736 3087 ft 207 kts 50°
2026-05-05 10:04 53.47974 9.68548 3022 ft 196 kts 50°
2026-05-05 10:05 53.48834 9.70266 3019 ft 189 kts 50°
2026-05-05 10:05 53.49674 9.71946 3011 ft 186 kts 50°
2026-05-05 10:05 53.50507 9.73613 3008 ft 186 kts 50°
2026-05-05 10:05 53.51338 9.75276 3009 ft 185 kts 50°
2026-05-05 10:06 53.52144 9.76892 2997 ft 173 kts 50°
2026-05-05 10:06 53.52902 9.78412 2864 ft 166 kts 50°
2026-05-05 10:06 53.53626 9.79862 2658 ft 162 kts 50°
2026-05-05 10:06 53.54343 9.81302 2447 ft 159 kts 50°
2026-05-05 10:07 53.55050 9.82722 2232 ft 157 kts 50°
2026-05-05 10:07 53.55745 9.84118 2025 ft 155 kts 50°
2026-05-05 10:07 53.56431 9.85498 1807 ft 153 kts 50°
2026-05-05 10:07 53.57105 9.86855 1595 ft 146 kts 50°
2026-05-05 10:08 53.57732 9.88117 1402 ft 136 kts 50°
2026-05-05 10:08 53.58320 9.89300 1221 ft 132 kts 50°
2026-05-05 10:08 53.58906 9.90481 1041 ft 130 kts 49°
2026-05-05 10:08 53.59476 9.91673 858 ft 131 kts 50°
2026-05-05 10:09 53.60065 9.92846 684 ft 130 kts 48°
2026-05-05 10:09 53.60659 9.94017 473 ft 131 kts 50°
2026-05-05 10:09 53.61242 9.95197 324 ft 131 kts 51°
2026-05-05 10:09 53.61820 9.96361 120 ft 130 kts 51°
2026-05-05 10:10 53.62391 9.97514 45 ft 121 kts 51°
2026-05-05 10:10 53.62839 9.98429 50 ft 77 kts 51°
2026-05-05 10:10 53.62985 9.98720 49 ft 23 kts 47°
2026-05-05 10:10 53.63075 9.98939 49 ft 22 kts 74°
2026-05-05 10:11 53.63080 9.99198 47 ft 20 kts 107°
2026-05-05 10:11 53.63097 9.99384 49 ft 16 kts 61°
2026-05-05 10:11 53.63163 9.99554 49 ft 19 kts 53°
2026-05-05 10:11 53.63260 9.99736 50 ft 22 kts 47°
2026-05-05 10:12 53.63362 9.99933 50 ft 20 kts 50°
2026-05-05 10:12 53.63430 10.00074 51 ft 10 kts 63°
2026-05-05 10:12 53.63400 10.00195 51 ft 10 kts 132°
2026-05-05 10:12 53.63372 10.00250 51 ft 5 kts 97°
2026-05-05 10:13 53.63373 10.00318 51 ft 6 kts 86°
2026-05-05 10:13 53.63374 10.00342 51 ft 0 kts 86°